Voltar ao catálogo

COSMOS 1072

AtivoMilitarPO
NORAD 11238·PAYLOAD·🇷🇺 Russia

Lançado Jan 16, 1979 de Plesetsk Cosmodrome

Loading…

Próximas Passagens (próximas 24 horas)

TLE

AtualizadoSource: Space-Track

Época: Sep 14, 2026, 15:01 UTC

1 11238U 79003A   26257.62635373  .00000055  00000-0  41150-4 0  9996
2 11238  82.9419 139.5915 0038546  78.7350 299.3324 13.74388205389664

Acompanhe COSMOS 1072 em tempo real com AllMySat

Download on the App Store